Plovdiv, Bulgaria

4:23 AM EET on December 07, 2019 (GMT +0200)
Plovdiv

Weather History for LBPD - October, 2019

Change the Weather History Date:

Thursday, October 3, 2019

  Actual Average (WUND) Record (WUND)
Temperature  
Mean Temperature 68 °F -  
Max Temperature 86 °F - - (-1)
Min Temperature 51 °F - - (-1)
Cooling Degree Days 4    
Growing Degree Days 18 (Base 50)    
Moisture  
Dew Point 55 °F    
Average Humidity 63    
Maximum Humidity 94    
Minimum Humidity 25    
Precipitation  
Precipitation 0.00 in - - ()
Sea Level Pressure  
Sea Level Pressure 29.73 in    
Wind  
Wind Speed 6 mph ()    
Max Wind Speed 18 mph    
Max Gust Speed 28 mph    
Visibility 6.2 miles    
Events Rain , Thunderstorm    
Averages and records for this station are not official NWS values.
T = Trace of Precipitation, MM = Missing Value Source: Averaged Metar Reports

Daily Weather History Graph

Daily Weather History Graph

Search for Another Location

Airport or City:

Astronomy

Oct. 03, 2019 Rise Set
Actual Time 7:19 AM EEST 7:00 PM EEST
Civil Twilight 6:51 AM EEST 7:27 PM EEST
Nautical Twilight 6:19 AM EEST 8:00 PM EEST
Astronomical Twilight 5:46 AM EEST 8:32 PM EEST
Moon 12:35 PM EEST (10/3) 10:19 PM EEST (10/3)
Length of Visible Light 12h 36m
Length of Day
11h 40m
Waxing Crescent, 27% of the Moon is Illuminated
Oct 3
Waxing Crescent
Oct 5
First Quarter
Oct 14
Full
Oct 21
Last Quarter
Oct 28
New

Hourly Weather History & Observations

Time (EEST) Temp. Heat Index Dew Point Humidity Pressure Visibility Wind Dir Wind Speed Gust Speed Precip Events Conditions
12:00 AM 62.6 °F - 53.6 °F 72% 29.77 in 6.2 mi WNW 5.8 mph - N/A   Scattered Clouds
12:30 AM 62.6 °F - 53.6 °F 72% 29.77 in 6.2 mi South 6.9 mph - N/A   Unknown
1:00 AM 68.0 °F - 48.2 °F 49% 29.77 in 6.2 mi SSE 9.2 mph - N/A   Unknown
1:30 AM 62.6 °F - 53.6 °F 72% 29.77 in 6.2 mi ESE 8.1 mph - N/A   Unknown
2:00 AM 64.4 °F - 55.4 °F 73% 29.77 in 6.2 mi ESE 10.4 mph - N/A   Unknown
2:30 AM 62.6 °F - 55.4 °F 77% 29.77 in 6.2 mi SE 9.2 mph - N/A   Unknown
3:00 AM 62.6 °F - 55.4 °F 77% 29.74 in 6.2 mi ESE 9.2 mph - N/A   Unknown
3:30 AM 62.6 °F - 57.2 °F 82% 29.74 in 6.2 mi ESE 8.1 mph - N/A   Unknown
4:00 AM 60.8 °F - 57.2 °F 88% 29.74 in 6.2 mi SE 8.1 mph - N/A   Unknown
4:30 AM 60.8 °F - 57.2 °F 88% 29.74 in 6.2 mi ESE 6.9 mph - N/A   Unknown
5:00 AM 60.8 °F - 57.2 °F 88% 29.74 in 6.2 mi ESE 8.1 mph - N/A   Unknown
5:30 AM 60.8 °F - 53.6 °F 77% 29.74 in 6.2 mi SE 5.8 mph - N/A   Unknown
6:00 AM 55.4 °F - 51.8 °F 88% 29.74 in 6.2 mi SW 3.5 mph - N/A   Unknown
6:30 AM 51.8 °F - 50.0 °F 94% 29.74 in 6.2 mi WSW 3.5 mph - N/A   Unknown
7:00 AM 53.6 °F - 51.8 °F 94% 29.77 in 6.2 mi Variable 2.3 mph - N/A   Unknown
7:30 AM 53.6 °F - 51.8 °F 94% 29.77 in 6.2 mi Calm Calm - N/A   Unknown
8:00 AM 55.4 °F - 51.8 °F 88% 29.77 in 6.2 mi Calm Calm - N/A   Unknown
8:30 AM 57.2 °F - 53.6 °F 88% 29.77 in 6.2 mi Variable 2.3 mph - N/A   Unknown
9:00 AM 60.8 °F - 55.4 °F 82% 29.77 in 6.2 mi WNW 4.6 mph - N/A   Unknown
9:30 AM 62.6 °F - 53.6 °F 72% 29.77 in 6.2 mi NW 5.8 mph - N/A   Unknown
10:00 AM 66.2 °F - 57.2 °F 73% 29.77 in 6.2 mi Variable 3.5 mph - N/A   Unknown
10:30 AM 68.0 °F - 59.0 °F 73% 29.77 in 6.2 mi Variable 4.6 mph - N/A   Unknown
11:00 AM 68.0 °F - 57.2 °F 68% 29.77 in 6.2 mi East 4.6 mph - N/A   Unknown
11:30 AM 69.8 °F - 57.2 °F 64% 29.77 in 6.2 mi ENE 4.6 mph - N/A   Unknown
12:00 PM 71.6 °F - 57.2 °F 60% 29.74 in 6.2 mi ENE 4.6 mph - N/A   Unknown
12:30 PM 75.2 °F - 57.2 °F 53% 29.74 in 6.2 mi Variable 2.3 mph - N/A   Unknown
1:00 PM 77.0 °F - 57.2 °F 50% 29.74 in 6.2 mi Variable 3.5 mph - N/A   Unknown
1:30 PM 78.8 °F - 57.2 °F 47% 29.71 in 6.2 mi Variable 3.5 mph - N/A   Partly Cloudy
2:00 PM 78.8 °F - 57.2 °F 47% 29.71 in 6.2 mi Variable 3.5 mph - N/A   Unknown
2:30 PM 80.6 °F 80.8 °F 57.2 °F 45% 29.71 in 6.2 mi Variable 4.6 mph - N/A   Partly Cloudy
3:00 PM 82.4 °F 82.0 °F 57.2 °F 42% 29.68 in 6.2 mi Variable 2.3 mph - N/A   Unknown
3:30 PM 82.4 °F 82.0 °F 57.2 °F 42% 29.68 in 6.2 mi Variable 2.3 mph - N/A   Partly Cloudy
4:00 PM 84.2 °F 83.0 °F 55.4 °F 37% 29.68 in 6.2 mi NNE 3.5 mph - N/A   Partly Cloudy
4:30 PM 86.0 °F 84.2 °F 53.6 °F 33% 29.65 in 6.2 mi Variable 4.6 mph - N/A   Unknown
5:00 PM 84.2 °F - 44.6 °F 25% 29.65 in 6.2 mi SW 15.0 mph - N/A Thunderstorm Thunderstorm
5:30 PM 78.8 °F - 55.4 °F 44% 29.65 in 6.2 mi WNW 15.0 mph 27.6 mph N/A   Unknown
6:00 PM 78.8 °F - 53.6 °F 42% 29.68 in 6.2 mi West 9.2 mph - N/A   Partly Cloudy
6:30 PM 80.6 °F - 50.0 °F 34% 29.68 in 6.2 mi SSW 18.4 mph - N/A   Mostly Cloudy
7:00 PM 77.0 °F - 51.8 °F 41% 29.68 in 6.2 mi SW 13.8 mph - N/A   Overcast
7:30 PM 75.2 °F - 53.6 °F 47% 29.68 in 6.2 mi SSW 8.1 mph - N/A Rain Light Rain Showers
8:00 PM 75.2 °F - 51.8 °F 44% 29.68 in 6.2 mi South 11.5 mph - N/A Rain Light Rain Showers
8:30 PM 73.4 °F - 53.6 °F 50% 29.68 in 6.2 mi South 6.9 mph - N/A   Overcast
9:00 PM 73.4 °F - 53.6 °F 50% 29.71 in 6.2 mi South 6.9 mph - N/A Rain Light Rain Showers
9:30 PM 71.6 °F - 55.4 °F 57% 29.71 in 6.2 mi NW 8.1 mph - N/A Rain Light Rain Showers
10:00 PM 69.8 °F - 55.4 °F 60% 29.71 in 6.2 mi West 11.5 mph - N/A   Mostly Cloudy
10:30 PM 68.0 °F - 55.4 °F 64% 29.74 in 6.2 mi WNW 13.8 mph - N/A   Overcast
11:00 PM 68.0 °F - 55.4 °F 64% 29.74 in 6.2 mi WNW 11.5 mph - N/A   Overcast
11:30 PM 68.0 °F - 55.4 °F 64% 29.74 in 6.2 mi WNW 10.4 mph - N/A   Mostly Cloudy